GW3957 Weather Reports


Display with metric or nautical units.
time (UTC)temp
F
wind
direction
speed
MPH
gust
MPH
rain 1hr
in
rain 24hr
in
rain mn
in
humidity
%
barometer
mb
20260506082019 57 226 0.0 0.0 0.00 0.02 0.02 76 1006.9
20260506081517 57 190 0.0 0.0 0.00 0.02 0.02 77 1006.9
20260506081015 57 211 0.0 1.0 0.00 0.02 0.02 76 1006.9
20260506080512 56 206 0.0 1.0 0.00 0.02 0.02 75 1007.1
20260506073455 55 229 0.0 0.0 0.00 0.02 0.02 83 1007.3
20260506072952 54 200 0.0 0.0 0.00 0.02 0.02 84 1007.3
20260506072449 54 213 0.0 0.0 0.00 0.02 0.02 87 1007.4
20260506071947 53 193 0.0 0.0 0.00 0.02 0.02 89 1007.6
20260506071445 53 210 0.0 0.0 0.00 0.02 0.02 89 1007.3
20260506070942 53 215 0.0 0.0 0.00 0.02 0.02 91 1007.3
20260506070439 52 199 0.0 0.0 0.00 0.02 0.02 94 1007.4
20260506062416 50 202 0.0 0.0 0.00 0.02 0.02 99 1007.9
20260506061912 50 201 0.0 0.0 0.00 0.02 0.02 99 1007.9
20260506061409 50 201 0.0 0.0 0.00 0.02 0.02 99 1007.9
20260506060907 50 201 0.0 0.0 0.00 0.02 0.02 99 1008.1
20260506060404 50 201 0.0 0.0 0.00 0.02 0.02 99 1008.2
20260506051336 51 209 0.0 0.0 0.00 0.02 0.02 99 1008.6
20260506050834 51 209 0.0 0.0 0.00 0.02 0.02 99 1008.7
20260506050331 51 219 0.0 0.0 0.00 0.02 0.02 98 1008.8
20260506044822 51 216 0.0 0.0 0.00 0.02 0.02 98 1008.9
20260506044320 52 216 0.0 0.0 0.00 0.02 0.02 97 1008.8
20260506043816 52 216 0.0 0.0 0.00 0.02 0.02 97 1009.1
20260506043314 52 216 0.0 0.0 0.00 0.02 0.02 96 1009.2
20260506042812 52 216 0.0 0.0 0.00 0.02 0.02 96 1009.2
20260506042310 53 216 0.0 0.0 0.00 0.02 0.02 95 1009.1
20260506041809 53 216 0.0 0.0 0.00 0.02 0.02 95 1009.3
20260506041305 53 217 0.0 0.0 0.00 0.02 0.02 94 1009.1
20260506040803 53 217 0.0 0.0 0.00 0.02 0.02 94 1009.2
20260506040300 53 217 0.0 0.0 0.00 0.02 0.02 92 1009.3
20260506035756 54 217 0.0 0.0 0.00 0.02 0.02 92 1009.2
20260506035254 54 217 0.0 0.0 0.00 0.02 0.02 92 1009.3
20260506034750 54 238 0.0 0.0 0.00 0.02 0.02 91 1009.2
20260506034248 55 208 0.0 0.0 0.00 0.02 0.02 90 1009.3
20260506033744 55 196 0.0 0.0 0.00 0.02 0.02 89 1009.1
20260506033242 55 230 0.0 0.0 0.00 0.02 0.02 88 1009.4
20260506032739 55 230 0.0 0.0 0.00 0.02 0.02 89 1009.3
20260506032236 55 230 0.0 0.0 0.00 0.02 0.02 90 1009.3
20260506031732 55 230 0.0 0.0 0.00 0.02 0.02 90 1009.1
20260506031229 55 230 0.0 0.0 0.00 0.02 0.02 91 1009.0
20260506030727 56 231 0.0 0.0 0.00 0.02 0.02 89 1009.0
20260506030225 56 231 0.0 0.0 0.00 0.02 0.02 88 1008.9
20260506025721 56 231 0.0 0.0 0.00 0.02 0.02 87 1009.0
20260506025217 57 231 0.0 0.0 0.00 0.02 0.02 86 1009.0
20260506024714 57 231 0.0 0.0 0.00 0.02 0.02 85 1009.0
20260506024211 57 231 0.0 0.0 0.00 0.02 0.02 85 1008.9
20260506023707 57 231 0.0 0.0 0.00 0.02 0.02 85 1009.1
20260506023205 57 231 0.0 0.0 0.00 0.02 0.02 87 1009.1
20260506022701 58 206 0.0 0.0 0.00 0.02 0.02 86 1009.1
20260506022159 58 205 0.0 0.0 0.00 0.02 0.02 86 1009.2
20260506021657 58 205 0.0 0.0 0.00 0.02 0.02 87 1009.1
20260506021154 58 207 0.0 0.0 0.00 0.02 0.02 85 1009.1
20260506020651 58 207 0.0 0.0 0.00 0.02 0.02 85 1009.0
20260506020148 59 207 0.0 0.0 0.00 0.02 0.02 85 1009.1
20260506015646 58 223 0.0 0.0 0.00 0.02 0.02 83 1009.0
20260506015143 58 223 0.0 0.0 0.00 0.02 0.02 83 1008.7
20260506014640 58 223 0.0 0.0 0.00 0.02 0.02 84 1008.8
20260506014136 58 223 0.0 0.0 0.00 0.02 0.02 84 1008.9
20260506013634 58 223 0.0 0.0 0.00 0.02 0.02 84 1009.2
20260506013131 58 223 0.0 0.0 0.00 0.02 0.02 84 1009.0
20260506012627 58 223 0.0 0.0 0.00 0.02 0.02 84 1008.9
20260506012123 58 223 0.0 0.0 0.00 0.02 0.02 84 1008.7
20260506011621 58 223 0.0 0.0 0.00 0.02 0.02 84 1008.7
20260506011118 59 223 0.0 0.0 0.00 0.02 0.02 84 1008.8
20260506010612 59 223 0.0 0.0 0.00 0.02 0.02 84 1008.8
20260506010108 59 223 0.0 0.0 0.00 0.02 0.02 84 1008.6
20260506005605 59 223 0.0 0.0 0.00 0.02 0.02 84 1008.4
20260506005101 59 223 0.0 0.0 0.00 0.02 0.02 84 1008.4
20260506004558 59 223 0.0 0.0 0.00 0.02 0.02 85 1008.3
20260506004055 59 223 0.0 0.0 0.00 0.02 0.02 84 1008.4
20260506003551 59 223 0.0 0.0 0.00 0.02 0.02 85 1008.3
20260506003048 59 216 0.0 0.0 0.00 0.02 0.02 84 1008.6
20260506002543 59 217 0.0 0.0 0.00 0.02 0.02 85 1008.6
20260506002040 59 217 0.0 0.0 0.00 0.02 0.02 85 1008.4
20260506001536 59 216 0.0 0.0 0.00 0.02 0.02 85 1008.3
20260506001033 59 217 0.0 0.0 0.00 0.02 0.02 87 1008.6
20260506000531 60 217 0.0 0.0 0.00 0.02 0.02 87 1008.6
20260506000028 60 217 0.0 0.0 0.00 0.02 0.02 86 1008.4
20260505235520 60 217 0.0 0.0 0.00 0.02 0.02 85 1008.4
20260505235017 60 217 0.0 0.0 0.00 0.02 0.02 86 1008.3
20260505234514 60 217 0.0 0.0 0.00 0.02 0.02 85 1008.6
20260505234011 60 217 0.0 0.0 0.00 0.02 0.02 86 1008.4
20260505233508 60 217 0.0 0.0 0.00 0.02 0.02 85 1008.3
20260505233006 61 217 0.0 0.0 0.00 0.02 0.02 84 1008.4
20260505232504 61 184 0.0 0.0 0.00 0.02 0.02 83 1008.3
20260505232001 61 233 0.0 0.0 0.00 0.02 0.02 83 1008.6
20260505231457 61 216 0.0 0.0 0.00 0.02 0.02 82 1008.2
20260505230956 62 258 0.0 0.0 0.00 0.02 0.02 82 1008.3
20260505230453 62 271 0.0 2.0 0.00 0.02 0.02 80 1008.1
20260505225949 63 245 0.0 0.0 0.00 0.02 0.02 80 1007.9
20260505225446 62 35 0.0 1.0 0.00 0.02 0.02 76 1007.6
20260505224942 62 188 0.0 0.0 0.00 0.02 0.02 81 1007.8
20260505224439 61 288 0.0 0.0 0.00 0.02 0.02 85 1007.6
20260505223936 61 207 0.0 0.0 0.00 0.02 0.02 85 1007.8
20260505223433 62 210 0.0 0.0 0.00 0.02 0.02 83 1007.7
20260505222930 62 210 0.0 0.0 0.00 0.02 0.02 83 1007.9
20260505222426 62 210 0.0 0.0 0.00 0.02 0.02 80 1007.6
20260505221922 63 210 0.0 0.0 0.00 0.02 0.02 78 1007.7
20260505221420 63 196 0.0 0.0 0.00 0.02 0.02 78 1007.6
20260505220917 62 236 0.0 0.0 0.00 0.02 0.02 78 1007.6
20260505220413 62 253 0.0 0.0 0.00 0.02 0.02 78 1007.7
20260505215911 62 242 0.0 0.0 0.00 0.02 0.02 78 1007.7
20260505215409 62 247 0.0 0.0 0.00 0.02 0.02 81 1007.6
20260505214907 62 230 0.0 3.0 0.00 0.02 0.02 82 1007.7
20260505214404 61 189 0.0 3.0 0.00 0.02 0.02 80 1007.7
20260505213901 62 210 0.0 1.0 0.00 0.02 0.02 80 1008.1
20260505213359 62 242 0.0 0.0 0.00 0.02 0.02 82 1007.7
20260505212855 62 215 0.0 4.0 0.00 0.02 0.02 83 1007.5
20260505212352 63 238 0.0 1.0 0.00 0.02 0.02 78 1007.6
20260505211848 62 193 1.0 4.0 0.00 0.02 0.02 76 1007.7
20260505211345 62 119 4.0 6.0 0.00 0.02 0.02 87 1007.5
20260505210841 62 254 0.0 0.0 0.00 0.02 0.02 89 1007.5
20260505210339 62 235 0.0 0.0 0.00 0.02 0.02 88 1007.1
20260505205835 62 236 0.0 0.0 0.07 0.02 0.02 89 1007.2
20260505205334 62 233 0.0 0.0 0.07 0.02 0.02 87 1007.1
20260505204830 62 193 0.0 0.0 0.00 0.01 0.01 83 1007.2
20260505204328 64 255 0.0 0.0 0.05 0.01 0.01 77 1007.3
20260505203825 66 186 1.0 4.0 0.05 0.01 0.01 65 1007.3
20260505203321 70 207 3.0 7.0 0.00 0.00 0.00 48 1007.1
20260505202818 71 125 1.0 6.0 0.00 0.00 0.00 43 1006.3
20260505202314 71 181 1.0 4.0 0.00 0.00 0.00 41 1006.4
20260505201811 72 238 2.0 9.0 0.00 0.00 0.00 40 1006.3
20260505201309 72 273 0.0 7.0 0.00 0.00 0.00 41 1006.1
20260505200807 72 278 1.0 9.0 0.00 0.00 0.00 39 1006.1
20260505200303 73 226 4.0 9.0 0.00 0.00 0.00 39 1006.4
20260505195758 73 85 2.0 3.0 0.00 0.00 0.00 39 1006.2
20260505195257 73 74 1.0 3.0 0.00 0.00 0.00 39 1006.2
20260505194753 73 47 1.0 7.0 0.00 0.00 0.00 40 1006.3
20260505194250 74 347 1.0 14.0 0.00 0.00 0.00 38 1006.3
20260505193745 75 149 2.0 9.0 0.00 0.00 0.00 38 1006.3
20260505193243 75 150 8.0 10.0 0.00 0.00 0.00 38 1006.3
20260505192742 75 156 6.0 10.0 0.00 0.00 0.00 38 1006.4
20260505192239 75 234 2.0 6.0 0.00 0.00 0.00 38 1006.2
20260505191737 75 109 5.0 16.0 0.00 0.00 0.00 38 1006.3
20260505191235 74 96 4.0 10.0 0.00 0.00 0.00 40 1006.5
20260505190731 73 226 1.0 4.0 0.00 0.00 0.00 39 1006.5
20260505190226 73 48 2.0 4.0 0.00 0.00 0.00 41 1006.9
20260505185722 73 201 1.0 6.0 0.00 0.00 0.00 39 1006.5
20260505185219 74 94 3.0 4.0 0.00 0.00 0.00 39 1006.6
20260505184715 75 49 3.0 8.0 0.00 0.00 0.00 38 1007.0
20260505184213 75 238 3.0 10.0 0.00 0.00 0.00 40 1007.0
20260505183709 75 141 2.0 8.0 0.00 0.00 0.00 38 1006.6
20260505183207 75 140 3.0 11.0 0.00 0.00 0.00 39 1006.8
20260505182702 75 318 5.0 7.0 0.00 0.00 0.00 39 1007.0
20260505182200 75 77 1.0 4.0 0.00 0.00 0.00 42 1007.1
20260505181656 74 250 3.0 10.0 0.00 0.00 0.00 43 1007.1
20260505181154 75 161 4.0 11.0 0.00 0.00 0.00 41 1007.3
20260505180650 75 89 4.0 8.0 0.00 0.00 0.00 43 1007.3
20260505180147 73 211 4.0 7.0 0.00 0.00 0.00 43 1007.5
20260505175643 73 119 1.0 9.0 0.00 0.00 0.00 44 1007.4
20260505175139 73 221 2.0 6.0 0.00 0.00 0.00 44 1007.5
20260505174636 74 153 4.0 9.0 0.00 0.00 0.00 44 1007.4
20260505174132 74 112 4.0 9.0 0.00 0.00 0.00 42 1007.5
20260505173629 74 147 0.0 9.0 0.00 0.00 0.00 43 1007.1
20260505173126 74 268 2.0 4.0 0.00 0.00 0.00 44 1007.3
20260505172624 73 85 2.0 3.0 0.00 0.00 0.00 46 1007.1
20260505172120 72 257 1.0 3.0 0.00 0.00 0.00 45 1007.1
20260505171615 72 86 2.0 7.0 0.00 0.00 0.00 47 1007.1
20260505171112 73 162 5.0 11.0 0.00 0.00 0.00 43 1007.1
20260505170609 74 178 5.0 7.0 0.00 0.00 0.00 45 1006.9
20260505170105 74 21 4.0 4.0 0.00 0.00 0.00 45 1007.0
20260505165600 73 344 3.0 4.0 0.00 0.00 0.00 45 1007.0
20260505165057 72 1 1.0 3.0 0.00 0.00 0.00 46 1007.1
20260505164552 73 277 1.0 6.0 0.00 0.00 0.00 47 1007.4
20260505164050 73 264 1.0 7.0 0.00 0.00 0.00 46 1007.4
20260505163548 73 51 0.0 3.0 0.00 0.00 0.00 46 1007.3
20260505163045 72 119 4.0 6.0 0.00 0.00 0.00 46 1007.6
20260505162538 72 135 4.0 10.0 0.00 0.00 0.00 47 1007.5
20260505162036 72 246 0.0 1.0 0.00 0.00 0.00 46 1007.5
20260505161532 72 104 4.0 8.0 0.00 0.00 0.00 48 1007.6
20260505161029 72 98 2.0 4.0 0.00 0.00 0.00 50 1007.7
20260505160527 73 196 0.0 3.0 0.00 0.00 0.00 47 1007.7
20260505153003 72 145 4.0 6.0 0.00 0.00 0.00 48 1007.6
20260505152455 72 171 0.0 9.0 0.00 0.00 0.00 49 1007.6
20260505151950 71 353 2.0 6.0 0.00 0.00 0.00 49 1007.7
20260505151445 71 169 7.0 10.0 0.00 0.00 0.00 48 1007.5
20260505150943 71 59 2.0 9.0 0.00 0.00 0.00 49 1007.6
20260505150440 71 235 5.0 11.0 0.00 0.00 0.00 51 1007.5
20260505140410 64 98 1.0 4.0 0.00 0.00 0.00 61 1007.5
20260505124823 65 228 2.0 8.0 0.00 0.00 0.00 57 1007.6
20260505124320 64 225 0.0 3.0 0.00 0.00 0.00 58 1007.8
20260505123816 64 158 4.0 4.0 0.00 0.00 0.00 60 1007.7
20260505123313 63 211 0.0 3.0 0.00 0.00 0.00 59 1007.9
20260505122809 62 8 2.0 3.0 0.00 0.00 0.00 61 1007.8
20260505122307 63 185 5.0 7.0 0.00 0.00 0.00 62 1007.8
20260505121803 63 52 1.0 3.0 0.00 0.00 0.00 60 1007.8
20260505121300 63 97 0.0 2.0 0.00 0.00 0.00 62 1007.8
20260505120756 61 184 2.0 4.0 0.00 0.00 0.00 63 1007.8
20260505120253 60 163 2.0 2.0 0.00 0.00 0.00 65 1008.0
20260505115751 61 95 4.0 7.0 0.00 0.00 0.00 64 1007.8
20260505115249 61 113 3.0 7.0 0.00 0.00 0.00 63 1007.9
20260505114746 61 202 3.0 3.0 0.00 0.00 0.00 64 1007.7
20260505114242 61 201 2.0 7.0 0.00 0.00 0.00 63 1007.6
20260505113739 61 194 0.0 2.0 0.00 0.00 0.00 62 1007.6
20260505113235 61 133 0.0 3.0 0.00 0.00 0.00 63 1007.8
20260505112731 60 133 1.0 3.0 0.00 0.00 0.00 65 1007.8
20260505112229 60 68 1.0 6.0 0.00 0.00 0.00 65 1007.7
20260505111729 60 153 1.0 4.0 0.00 0.00 0.00 64 1007.7
20260505111225 60 104 0.0 2.0 0.00 0.00 0.00 65 1007.6
20260505110721 59 205 0.0 4.0 0.00 0.00 0.00 66 1007.6
20260505110219 59 186 2.0 2.0 0.00 0.00 0.00 68 1007.4
20260505102154 56 138 3.0 4.0 0.00 0.00 0.00 70 1007.1
20260505101653 57 166 1.0 1.0 0.00 0.00 0.00 70 1007.0
20260505101149 56 164 2.0 6.0 0.00 0.00 0.00 71 1007.1
20260505100645 56 109 1.0 6.0 0.00 0.00 0.00 70 1007.0
20260505100142 56 226 0.0 0.0 0.00 0.00 0.00 72 1007.1
20260505095638 55 257 0.0 2.0 0.00 0.00 0.00 71 1006.9
20260505095136 56 200 0.0 2.0 0.00 0.00 0.00 70 1006.8
20260505094631 56 167 0.0 3.0 0.00 0.00 0.00 70 1006.9
20260505094128 56 59 2.0 3.0 0.00 0.00 0.00 69 1007.0
20260505093624 56 163 2.0 3.0 0.00 0.00 0.00 70 1006.8
20260505093122 57 58 2.0 6.0 0.00 0.00 0.00 69 1006.9
20260505092619 57 199 1.0 2.0 0.00 0.00 0.00 68 1006.8
20260505092118 57 194 1.0 2.0 0.00 0.00 0.00 69 1006.5
20260505091614 56 163 0.0 2.0 0.00 0.00 0.00 70 1006.5
20260505091112 56 183 0.0 2.0 0.00 0.00 0.00 70 1006.6
20260505090610 56 153 2.0 4.0 0.00 0.00 0.00 69 1006.6
20260505090108 56 201 1.0 2.0 0.00 0.00 0.00 68 1006.8
20260505085605 56 140 2.0 4.0 0.00 0.00 0.00 68 1006.9
20260505085103 56 208 3.0 4.0 0.00 0.00 0.00 67 1006.9
20260505084601 56 186 0.0 4.0 0.00 0.00 0.00 68 1006.8
20260505084059 56 79 2.0 4.0 0.00 0.00 0.00 68 1007.0
20260505083555 56 130 3.0 4.0 0.00 0.00 0.00 67 1007.0
20260505083052 56 98 1.0 2.0 0.00 0.00 0.00 68 1006.9
20260505082548 56 179 0.0 3.0 0.00 0.00 0.00 67 1007.0